DateTimeUTC,F1_A11,F1_S11,BsB_S11,BsG_S11,BsR_S11,BbsB_S11,BbsG_S11,BbsR_S11,BaB_A11,BaG_A11,BaR_A11,Tu_S11,T_S11,Uu_S11,U_S11,P_S11,T1_A11
2021-07-03T22:00:00Z,00000200,20000000,,,,,,,0000.03,-000.19,0000.12,19.2,25.7,09.2,06.2,0672.4,31.2
2021-07-03T22:01:00Z,00000200,20000000,,,,,,,-000.10,0000.27,0000.27,19.2,25.7,09.1,06.1,0672.4,31.1
2021-07-03T22:02:00Z,00000200,20000000,,,,,,,0000.12,0000.16,-000.22,19.2,25.7,09.1,06.1,0672.4,31.1
2021-07-03T22:03:00Z,00000200,60000000,,,,,,,0000.34,-000.11,0000.10,19.2,25.7,09.1,06.1,0672.4,31.2
2021-07-03T22:04:00Z,00000200,40000000,0001.09,0000.39,0000.39,0000.63,0000.12,0000.34,-000.30,0000.18,-000.29,19.2,25.5,09.2,06.3,0673.3,31.1
2021-07-03T22:05:00Z,00000200,00000000,0001.10,0000.42,0000.09,-000.01,0000.07,0000.07,0000.01,-000.02,0000.33,19.2,25.5,09.2,06.3,0673.4,31.1
2021-07-03T22:06:00Z,00000200,00000000,-000.04,0000.16,0000.14,0000.36,-000.08,0000.08,0000.37,0000.06,-000.06,19.2,25.4,09.3,06.3,0673.4,31.1
2021-07-03T22:07:00Z,00000200,00000000,0000.48,0000.59,-000.01,0000.37,0000.01,0000.07,-000.02,0000.07,0000.51,19.1,25.4,09.2,06.3,0673.4,31.1
2021-07-03T22:08:00Z,00000200,00000000,0000.90,0000.21,0000.24,0000.81,0000.08,0000.04,-000.18,0000.13,-000.23,19.1,25.4,09.2,06.3,0673.4,31.1
2021-07-03T22:09:00Z,00000200,00000000,0000.59,0000.50,0000.22,0000.60,0000.18,0000.09,0000.40,-000.11,0000.33,19.1,25.3,09.3,06.4,0673.4,31.1
2021-07-03T22:10:00Z,00000200,00000000,0000.85,0000.27,0000.36,0000.54,-000.01,0000.21,0000.20,0000.27,-000.01,19.1,25.3,09.2,06.3,0673.4,31.1
2021-07-03T22:11:00Z,00000200,00000000,0001.19,0000.44,0000.38,0000.25,-000.02,0000.37,-000.09,-000.15,-000.42,19.1,25.3,09.2,06.3,0673.4,31.1
2021-07-03T22:12:00Z,00000200,00000000,0000.36,0000.39,0000.21,0000.83,0000.04,0000.25,0000.28,0000.07,0000.07,19.0,25.3,09.2,06.3,0673.4,31.1
2021-07-03T22:13:00Z,00000200,00000000,0001.00,0000.48,0000.46,0001.06,0000.14,0000.09,-000.13,0000.25,0000.45,19.0,25.2,09.2,06.3,0673.4,31.1
2021-07-03T22:14:00Z,00000200,00000000,0001.38,0000.40,0000.30,0000.31,0000.23,0000.11,0000.14,0000.18,0000.06,19.0,25.3,09.2,06.3,0673.4,31.1
2021-07-03T22:15:00Z,00000200,00000000,0000.32,0000.54,0000.37,-000.08,0000.16,0000.17,0000.04,0000.14,-000.02,19.0,25.2,09.2,06.3,0673.4,31.1
2021-07-03T22:16:00Z,00000200,00000000,0000.93,0000.77,0000.19,0000.76,0000.06,0000.06,0000.11,-000.12,0000.25,19.0,25.2,09.3,06.3,0673.3,31.1
2021-07-03T22:17:00Z,00000200,00000000,0000.66,0000.29,0000.61,0000.26,0000.20,0000.22,-000.13,0000.17,-000.45,18.9,25.2,09.2,06.3,0673.4,31.1
2021-07-03T22:18:00Z,00000200,00000000,0000.42,0000.56,0000.44,0000.17,0000.36,0000.02,0000.39,0000.04,0000.37,18.9,25.2,09.2,06.3,0673.3,31.1
2021-07-03T22:19:00Z,00000200,00000000,-000.35,0000.35,0000.53,-000.17,0000.18,0000.12,-000.02,-000.02,-000.15,18.9,25.2,09.2,06.3,0673.4,31.1
2021-07-03T22:20:00Z,00000200,00000000,0001.04,0000.50,0000.27,-000.07,-000.25,0000.07,0000.22,0000.35,0000.54,18.9,25.1,09.2,06.3,0673.4,31.1
2021-07-03T22:21:00Z,00000200,00000000,0000.39,0000.38,0000.41,0000.24,0000.34,0000.38,0000.25,0000.04,-000.15,18.9,25.1,09.2,06.3,0673.4,31.1
2021-07-03T22:22:00Z,00000200,00000000,0000.73,0000.11,0000.16,0000.18,0000.07,0000.15,0000.15,-000.12,0000.26,18.9,25.1,09.2,06.3,0673.4,31.1
2021-07-03T22:23:00Z,00000200,00000000,0000.56,0000.56,0000.42,-000.17,0000.09,0000.05,-000.17,0000.07,0000.19,18.9,25.1,09.1,06.2,0673.4,31.1
2021-07-03T22:24:00Z,00000200,00000000,0000.73,0000.50,0000.35,0000.35,0000.08,0000.37,0000.22,0000.25,-000.48,19.0,25.2,09.2,06.3,0673.4,31.2
2021-07-03T22:25:00Z,00000200,00000000,0000.82,0000.38,0000.29,0000.22,0000.16,0000.24,-000.02,0000.37,0000.50,19.1,25.2,09.1,06.3,0673.4,31.2
2021-07-03T22:26:00Z,00000200,00000000,0000.82,0000.56,0000.03,0000.71,0000.17,0000.10,0000.26,0000.30,0000.16,19.2,25.3,09.1,06.2,0673.4,31.2
2021-07-03T22:27:00Z,00000200,00000000,0000.45,0000.32,0000.35,0000.47,-000.14,0000.50,0000.05,-000.01,-000.12,19.3,25.4,09.0,06.2,0673.4,31.2
2021-07-03T22:28:00Z,00000200,00000000,0000.54,0000.58,0000.30,0001.00,-000.11,0000.15,-000.06,-000.41,-000.23,19.3,25.4,09.0,06.2,0673.4,31.2
2021-07-03T22:29:00Z,00000200,00000000,0000.46,0000.46,0000.22,0000.43,0000.24,0000.07,0000.19,0000.36,0000.70,19.3,25.4,08.9,06.2,0673.4,31.2
2021-07-03T22:30:00Z,00000200,00000000,0000.99,0000.65,0000.55,0000.68,0000.01,0000.11,0000.41,0000.35,-000.21,19.3,25.4,08.9,06.1,0673.5,31.2
2021-07-03T22:31:00Z,00000200,00000000,0000.73,0000.49,0000.38,0000.55,0000.17,0000.37,0000.09,-000.08,-000.11,19.3,25.4,08.9,06.1,0673.4,31.2
2021-07-03T22:32:00Z,00000200,00000000,0001.04,0000.52,0000.05,0000.07,0000.22,0000.17,-000.36,-000.09,0000.22,19.3,25.4,08.8,06.1,0673.4,31.2
2021-07-03T22:33:00Z,00000200,00000000,0000.37,0000.29,-000.14,0000.20,-000.13,-000.02,0000.04,0000.02,0000.14,19.2,25.4,08.8,06.1,0673.4,31.1
2021-07-03T22:34:00Z,00000200,00000000,0001.11,0000.57,0000.22,0000.24,0000.12,0000.00,0000.57,0000.23,0000.21,19.2,25.3,08.8,06.1,0673.4,31.1
2021-07-03T22:35:00Z,00000200,00000000,0001.60,0000.39,0000.16,0000.48,-000.09,0000.21,-000.19,0000.15,-000.01,19.2,25.3,08.8,06.1,0673.4,31.1
2021-07-03T22:36:00Z,00000200,00000000,0000.92,0000.45,0000.18,0000.14,0000.05,-000.02,0000.03,-000.14,0000.03,19.2,25.3,08.8,06.1,0673.4,31.1
2021-07-03T22:37:00Z,00000200,00000000,0000.62,0000.65,0000.44,0000.06,0000.15,-000.06,0000.02,0000.15,-000.06,19.2,25.3,08.8,06.1,0673.4,31.1
2021-07-03T22:38:00Z,00000200,00000000,0001.03,0000.47,0000.37,0000.97,0000.23,-000.01,0000.38,0000.20,-000.09,19.2,25.3,08.8,06.0,0673.4,31.2
2021-07-03T22:39:00Z,00000200,00000000,0001.04,0000.23,0000.38,0000.59,0000.26,-000.12,-000.04,0000.18,0000.48,19.2,25.4,08.7,06.0,0673.4,31.2
2021-07-03T22:40:00Z,00000200,00000000,0000.52,0000.21,0000.29,0000.35,0000.07,0000.09,0000.17,0000.20,0000.01,19.3,25.4,08.7,06.0,0673.4,31.2
2021-07-03T22:41:00Z,00000200,00000000,0000.44,0000.48,0000.49,0000.52,0000.09,0000.04,-000.07,-000.13,0000.01,19.3,25.4,08.6,05.9,0673.4,31.2
2021-07-03T22:42:00Z,00000200,00000000,0000.48,0000.19,0000.37,-000.10,-000.18,0000.06,0000.20,0000.17,0000.10,19.3,25.4,08.6,05.9,0673.4,31.2
2021-07-03T22:43:00Z,00000200,00000000,0000.82,0000.40,0000.12,-000.04,0000.27,0000.34,0000.38,0000.24,-000.32,19.3,25.4,08.6,05.9,0673.3,31.2
2021-07-03T22:44:00Z,00000200,00000000,0000.21,0000.58,0000.29,0000.46,0000.04,0000.09,-000.53,-000.41,0000.08,19.3,25.4,08.6,05.9,0673.4,31.2
2021-07-03T22:45:00Z,00000200,00000000,0000.97,0000.57,0000.30,0000.52,0000.36,-000.09,0000.40,0000.26,0000.21,19.3,25.4,08.4,05.8,0673.4,31.2
2021-07-03T22:46:00Z,00000200,00000000,0000.30,0000.29,0000.17,0000.45,-000.04,0000.22,0000.33,0000.38,0000.29,19.2,25.4,08.5,05.8,0673.4,31.1
2021-07-03T22:47:00Z,00000200,00000000,0000.41,0000.39,0000.22,0000.37,0000.24,0000.28,-000.25,-000.16,-000.06,19.2,25.4,08.5,05.8,0673.4,31.1
2021-07-03T22:48:00Z,00000200,00000000,0000.83,0000.51,0000.54,0000.46,0000.03,0000.35,0000.14,0000.07,-000.05,19.2,25.3,08.5,05.8,0673.4,31.1
2021-07-03T22:49:00Z,00000200,00000000,0001.38,0000.11,0000.17,0000.26,-000.13,-000.03,0000.18,0000.42,0000.33,19.1,25.3,08.6,05.9,0673.4,31.1
2021-07-03T22:50:00Z,00000200,00000000,0000.67,0000.17,0000.38,0000.72,0000.22,-000.00,0000.12,-000.22,-000.04,19.1,25.3,08.5,05.8,0673.4,31.1
2021-07-03T22:51:00Z,00000200,00000000,0000.95,0000.52,0000.05,0000.77,-000.11,0000.20,0000.32,0000.28,-000.04,19.1,25.3,08.6,05.9,0673.3,31.1
2021-07-03T22:52:00Z,00000200,00000000,0001.02,0000.54,0000.24,0000.28,0000.20,-000.13,-000.28,0000.09,0000.15,19.1,25.3,08.5,05.9,0673.3,31.1
2021-07-03T22:53:00Z,00000200,00000000,0001.15,0000.26,0000.35,0000.09,0000.24,0000.10,0000.56,-000.18,-000.10,19.1,25.3,08.5,05.8,0673.3,31.2
2021-07-03T22:54:00Z,00000200,00000000,0001.45,0000.30,0000.34,0000.46,0000.26,0000.22,-000.32,0000.33,0000.14,19.1,25.3,08.5,05.8,0673.3,31.2
2021-07-03T22:55:00Z,00000200,00000000,0000.72,0000.20,0000.49,-000.32,0000.09,0000.35,0000.52,0000.22,0000.44,19.1,25.3,08.5,05.8,0673.4,31.1
2021-07-03T22:56:00Z,00000200,00000000,0000.93,0000.48,0000.03,0000.19,-000.12,-000.21,-000.43,-000.02,-000.25,19.2,25.3,08.4,05.8,0673.4,31.1
2021-07-03T22:57:00Z,00000200,40000000,,,,,,,0000.45,-000.46,0000.18,19.2,25.4,08.9,06.1,0673.5,31.2
2021-07-03T22:58:00Z,00000200,60000000,,,,,,,-000.34,0000.36,-000.14,18.9,25.5,08.7,05.8,0672.4,31.1
2021-07-03T22:59:00Z,00000200,20000000,,,,,,,-000.36,-000.48,0000.16,18.9,25.6,08.4,05.6,0672.4,31.1
